Regional Weather Roundup
Issued by NWS

Home | Current Version | Previous Version | Text Only | Print | Product List | Glossary On
Versions: 1 2 3 4 5 6 7 8 9 10 11 12 13 14 15 16 17 18 19 20 21 22 23 24 25 26 27 28 29 30 31 32 33 34 35 36 37 38 39 40 41 42 43 44 45 46 47 48 49 50
077
ASUS43 KTOP 211559
RWRKS

WEATHER ROUNDUP FOR KANSAS
NATIONAL WEATHER SERVICE GOODLAND KS
1100 AM CDT SAT OCT 21 2017

NOTE:  "FAIR" INDICATES FEW OR NO CLOUDS BELOW 12,000 FEET WITH NO
SIGNIFICANT WEATHER AND/OR OBSTRUCTIONS TO VISIBILITY.

KSZ001>006-013>018-027>032-041>047-211700-
NORTHWEST KANSAS

CITY           SKY/WX    TMP DP  RH WIND       PRES   REMARKS
GOODLAND       CLOUDY    48  35  60 NW25G33   29.88R
HAYS           MOSUNNY   65  32  29 NW30G36   29.77R
HILL CITY      CLOUDY    61  33  35 NW29G44   29.79R
RUSSELL        CLOUDY    64  41  42 NW24      29.75R
$$

KSZ061>065-074>080-084>089-211700-
SOUTHWEST KANSAS

CITY           SKY/WX    TMP DP  RH WIND       PRES   REMARKS
DODGE CITY     MOSUNNY   63  32  31 N25G33    29.82R
ELKHART          N/A     57  27  31 N21         N/A
GARDEN CITY    MOSUNNY   61  28  28 N25G33    29.85R
GREAT BEND     CLOUDY    64  46  52 NW20G25   29.77R
LIBERAL        MOSUNNY   62  32  32 N28G35    29.84R
$$

KSZ066>073-081>083-090>101-211700-
SOUTHEAST KANSAS

CITY           SKY/WX    TMP DP  RH WIND       PRES   REMARKS
CHANUTE        CLOUDY    71  64  78 S21       29.87R
COFFEYVILLE    CLOUDY    71  64  78 S23G33    29.88R
HUTCHINSON     CLOUDY    72  64  76 S23G31    29.76R
MEDICINE LODGE   N/A     71  61  70 S18G33    29.77R
NEWTON         CLOUDY    72  64  76 S28G41    29.75F
PARSONS        CLOUDY    72  64  76 S16G28    29.89R
WICHITA INTL   LGT RAIN  71  66  84 S21       29.78S
WICHITA JABRA  CLOUDY    71  65  81 S21G32    29.78S
WICHITA MCCONL CLOUDY    70  63  78 SW24G31   29.80R
WINFIELD       CLOUDY    71  66  84 S23G33    29.82S
$$

KSZ007>012-019>026-033>040-048>060-102>105-211700-
NORTHEAST KANSAS

CITY           SKY/WX    TMP DP  RH WIND       PRES   REMARKS
CONCORDIA      LGT RAIN  72  63  73 SW26G37   29.68R
EMPORIA        CLOUDY    69  62  78 S28G36    29.78F
LAWRENCE       CLOUDY    69  63  81 S22G36    29.81F
MANHATTAN      CLOUDY    74  63  68 SW25G43   29.72R
OLATHE IND     CLOUDY    67  61  81 S21G29    29.86S
OLATHE EXE     CLOUDY    66  61  84 S18G26    29.85F
SALINA         CLOUDY    74  63  68 SW26      29.73R
TOPEKA BILLARD PTSUNNY   73  64  73 S26G41    29.75F
TOPEKA FORBES  CLOUDY    71  64  78 S24G35    29.77F
$$




USA.gov is the U.S. government's official web portal to all federal, state and local government web resources and services.